Location: Newark
(49.1939°N, 0.8136°E)
Time: 11:43:32
(UTC+00:00)

Envisat - Pass Details

Date: 25 November 2019
Orbit: 764 x 766 km, 98.1° (Epoch: 07 December)

Event Time Altitude Azimuth Distance (km) Brightness Sun altitude
Rises 16:54:31 0° 139° (SE) 3,223 6.0 -8.0°
Reaches altitude 10° 16:56:58 10° 131° (SE) 2,301 5.2 -8.3°
Maximum altitude 17:01:34 36° 66° (ENE) 1,199 3.5 -9.0°
Drops below altitude 10° 17:06:11 10° 0° (N) 2,314 5.3 -9.7°
Sets 17:08:38 0° 353° (N) 3,245 6.1 -10.1°
